Weather History for Fairmont, MN

Change the Weather History Date:

Saturday, January 19, 2013

  Actual Average Record
Temperature  
Mean Temperature 28 °F -  
Max Temperature 48 °F 24 °F 48 °F (2013)
Min Temperature 8 °F 4 °F -32 °F (1970)
Degree Days  
Heating Degree Days 37    
Moisture  
Dew Point 21 °F    
Average Humidity 57    
Maximum Humidity 67    
Minimum Humidity 46    
Precipitation  
Precipitation 0.00 in - - ()
Sea Level Pressure  
Sea Level Pressure 29.91 in    
Wind  
Wind Speed 14 mph (West)    
Max Wind Speed 33 mph    
Max Gust Speed 44 mph    
Visibility 10 miles    
Events      
Averages and records for this station are not official NWS values.
T = Trace of Precipitation, MM = Missing Value Source: NWS Daily Summary

Daily Weather History Graph

Daily Weather History Graph

Search for Another Location

Airport:

Trip Planner

Search our weather history database for the weather conditions in past years. The results will help you decide how hot, cold, wet, or windy it might be!

Date:

Astronomy

Jan. 19, 2013 Rise Set
Actual Time 7:45 AM CST 5:11 PM CST
Civil Twilight 7:14 AM CST 5:43 PM CST
Nautical Twilight 6:38 AM CST 6:18 PM CST
Astronomical Twilight 6:04 AM CST 6:52 PM CST
Moon 11:40 AM CST (1/19) 1:17 AM CST (1/19)
Length of Visible Light 10h 29m
Length of Day
9h 26m
First Quarter, 57% of the Moon is Illuminated
Jan 19
First Quarter
Jan 26
Full
Feb 3
Last Quarter
Feb 10
New
Feb 17
First Quarter

Hourly Weather History & Observations

Time (CST) Temp. Windchill Dew Point Humidity Pressure Visibility Wind Dir Wind Speed Gust Speed Precip Events Conditions
12:15 AM 39.2 °F 37.0 °F 28.4 °F 65% 29.79 in 10.0 mi SW 3.5 mph - N/A   Mostly Cloudy
12:35 AM 39.2 °F - 28.4 °F 65% 29.78 in 10.0 mi Calm Calm - N/A   Overcast
12:55 AM 39.2 °F 37.0 °F 28.4 °F 65% 29.78 in 10.0 mi South 3.5 mph - N/A   Overcast
1:15 AM 39.2 °F 34.2 °F 28.4 °F 65% 29.77 in 10.0 mi SSW 6.9 mph - N/A   Overcast
1:35 AM 39.2 °F 35.9 °F 28.4 °F 65% 29.76 in 10.0 mi SSW 4.6 mph - N/A   Scattered Clouds
1:55 AM 39.2 °F 35.0 °F 28.4 °F 65% 29.77 in 10.0 mi SSW 5.8 mph - N/A   Scattered Clouds
2:15 AM 39.2 °F 35.0 °F 28.4 °F 65% 29.77 in 10.0 mi SSW 5.8 mph - N/A   Mostly Cloudy
2:35 AM 39.2 °F 34.2 °F 28.4 °F 65% 29.76 in 10.0 mi SSW 6.9 mph - N/A   Mostly Cloudy
2:55 AM 39.2 °F 33.0 °F 28.4 °F 65% 29.76 in 10.0 mi SSW 9.2 mph - N/A   Mostly Cloudy
3:15 AM 39.2 °F 34.2 °F 28.4 °F 65% 29.75 in 10.0 mi SSW 6.9 mph - N/A   Partly Cloudy
3:35 AM 39.2 °F 35.0 °F 28.4 °F 65% 29.75 in 10.0 mi SSW 5.8 mph - N/A   Clear
3:55 AM 39.2 °F 34.2 °F 28.4 °F 65% 29.74 in 10.0 mi SSW 6.9 mph - N/A   Partly Cloudy
4:15 AM 39.2 °F 33.0 °F 28.4 °F 65% 29.74 in 10.0 mi SW 9.2 mph - N/A   Mostly Cloudy
4:35 AM 41.0 °F 35.2 °F 28.4 °F 61% 29.73 in 10.0 mi WSW 9.2 mph - N/A   Overcast
4:55 AM 41.0 °F 34.7 °F 28.4 °F 61% 29.73 in 10.0 mi WSW 10.4 mph - N/A   Overcast
5:15 AM 42.8 °F 36.6 °F 28.4 °F 57% 29.72 in 10.0 mi WSW 11.5 mph - N/A   Mostly Cloudy
5:35 AM 42.8 °F 36.2 °F 28.4 °F 57% 29.73 in 10.0 mi WSW 12.7 mph - N/A   Clear
5:55 AM 42.8 °F 35.4 °F 28.4 °F 57% 29.73 in 10.0 mi WSW 15.0 mph 19.6 mph N/A   Clear
6:15 AM 42.8 °F 35.4 °F 28.4 °F 57% 29.73 in 10.0 mi WSW 15.0 mph - N/A   Partly Cloudy
6:35 AM 42.8 °F 35.4 °F 28.4 °F 57% 29.74 in 10.0 mi West 15.0 mph - N/A   Partly Cloudy
6:55 AM 41.0 °F 33.9 °F 28.4 °F 61% 29.73 in 10.0 mi West 12.7 mph - N/A   Partly Cloudy
7:15 AM 42.8 °F 36.2 °F 28.4 °F 57% 29.74 in 10.0 mi West 12.7 mph - N/A   Clear
7:35 AM 42.8 °F 36.2 °F 28.4 °F 57% 29.74 in 10.0 mi WSW 12.7 mph - N/A   Clear
7:55 AM 42.8 °F 35.8 °F 28.4 °F 57% 29.74 in 10.0 mi WSW 13.8 mph - N/A   Clear
8:15 AM 42.8 °F 35.8 °F 28.4 °F 57% 29.75 in 10.0 mi West 13.8 mph - N/A   Clear
8:35 AM 41.0 °F 33.1 °F 28.4 °F 61% 29.76 in 10.0 mi West 15.0 mph - N/A   Clear
8:55 AM 42.8 °F 35.8 °F 28.4 °F 57% 29.77 in 10.0 mi West 13.8 mph - N/A   Scattered Clouds
9:15 AM 42.8 °F 36.6 °F 28.4 °F 57% 29.78 in 10.0 mi West 11.5 mph - N/A   Mostly Cloudy
9:35 AM 42.8 °F 35.4 °F 28.4 °F 57% 29.80 in 10.0 mi WNW 15.0 mph - N/A   Mostly Cloudy
9:55 AM 44.6 °F 37.4 °F 28.4 °F 53% 29.80 in 10.0 mi West 16.1 mph - N/A   Partly Cloudy
10:15 AM 44.6 °F 37.4 °F 28.4 °F 53% 29.81 in 10.0 mi WNW 16.1 mph - N/A   Scattered Clouds
10:35 AM 44.6 °F 36.9 °F 28.4 °F 53% 29.82 in 10.0 mi WNW 18.4 mph - N/A   Scattered Clouds
10:55 AM 46.4 °F 39.8 °F 28.4 °F 50% 29.83 in 10.0 mi WNW 16.1 mph 23.0 mph N/A   Clear
11:15 AM 46.4 °F 39.0 °F 28.4 °F 50% 29.82 in 10.0 mi WNW 19.6 mph - N/A   Scattered Clouds
11:35 AM 48.2 °F - 30.2 °F 50% 29.81 in 10.0 mi WNW 21.9 mph 28.8 mph N/A   Mostly Cloudy
11:55 AM 48.2 °F - 30.2 °F 50% 29.81 in 10.0 mi WNW 19.6 mph 25.3 mph N/A   Overcast
12:15 PM 48.2 °F - 30.2 °F 50% 29.82 in 10.0 mi NW 24.2 mph 28.8 mph N/A   Scattered Clouds
12:35 PM 48.2 °F - 30.2 °F 50% 29.82 in 10.0 mi NW 23.0 mph 28.8 mph N/A   Clear
12:55 PM 48.2 °F - 30.2 °F 50% 29.83 in 10.0 mi WNW 26.5 mph 32.2 mph N/A   Clear
1:15 PM 48.2 °F - 30.2 °F 50% 29.84 in 10.0 mi NW 27.6 mph 34.5 mph N/A   Partly Cloudy
1:35 PM 48.2 °F - 28.4 °F 46% 29.85 in 10.0 mi WNW 23.0 mph 31.1 mph N/A   Clear
1:55 PM 48.2 °F - 28.4 °F 46% 29.86 in 10.0 mi NW 23.0 mph 35.7 mph N/A   Partly Cloudy
2:15 PM 48.2 °F - 28.4 °F 46% 29.86 in 10.0 mi WNW 26.5 mph 34.5 mph N/A   Mostly Cloudy
2:35 PM 46.4 °F 37.9 °F 28.4 °F 50% 29.86 in 10.0 mi WNW 25.3 mph 34.5 mph N/A   Mostly Cloudy
2:55 PM 48.2 °F - 28.4 °F 46% 29.87 in 10.0 mi WNW 26.5 mph 39.1 mph N/A   Mostly Cloudy
3:15 PM 46.4 °F 37.4 °F 28.4 °F 50% 29.89 in 10.0 mi NNW 28.8 mph 39.1 mph N/A   Overcast
3:35 PM 37.4 °F 25.2 °F 21.2 °F 52% 29.93 in 10.0 mi NW 28.8 mph 38.0 mph N/A   Overcast
3:55 PM 33.8 °F 20.5 °F 21.2 °F 60% 29.94 in 10.0 mi NW 27.6 mph 38.0 mph N/A   Overcast
4:15 PM 35.6 °F 22.3 °F 21.2 °F 56% 29.96 in 10.0 mi NW 31.1 mph 41.4 mph N/A   Overcast
4:35 PM 32.0 °F 17.9 °F 19.4 °F 60% 29.98 in 10.0 mi NW 28.8 mph 35.7 mph N/A   Overcast
4:55 PM 30.2 °F 15.2 °F 15.8 °F 55% 30.01 in 10.0 mi NW 29.9 mph 38.0 mph N/A   Overcast
5:15 PM 28.4 °F 12.0 °F 12.2 °F 51% 30.03 in 10.0 mi NW 33.4 mph 43.7 mph N/A   Overcast
5:35 PM 26.6 °F 10.6 °F 10.4 °F 51% 30.05 in 10.0 mi NW 28.8 mph 41.4 mph N/A   Scattered Clouds
5:55 PM 24.8 °F 7.3 °F 10.4 °F 54% 30.07 in 10.0 mi NW 32.2 mph 40.3 mph N/A   Mostly Cloudy
6:15 PM - - - N/A% 30.08 in 10.0 mi WNW 32.2 mph 41.4 mph N/A   Mostly Cloudy
6:35 PM - - - N/A% 30.10 in 10.0 mi WNW 33.4 mph 42.6 mph N/A   Mostly Cloudy
6:55 PM - - - N/A% 30.11 in 10.0 mi WNW 31.1 mph 41.4 mph N/A   Mostly Cloudy
7:15 PM - - - N/A% 30.13 in 10.0 mi WNW 33.4 mph 43.7 mph N/A   Partly Cloudy
7:35 PM 17.6 °F -1.3 °F 1.4 °F 49% 30.15 in 10.0 mi WNW 27.6 mph 41.4 mph N/A   Partly Cloudy
7:55 PM 15.8 °F -4.4 °F 1.4 °F 53% 30.16 in 10.0 mi WNW 29.9 mph 38.0 mph N/A   Partly Cloudy
8:15 PM 15.8 °F -3.1 °F 1.4 °F 53% 30.17 in 10.0 mi NW 25.3 mph 35.7 mph N/A   Scattered Clouds
8:35 PM 14.0 °F -6.2 °F -0.4 °F 53% 30.18 in 10.0 mi WNW 27.6 mph 36.8 mph N/A   Scattered Clouds
8:55 PM 12.2 °F -7.9 °F 1.4 °F 62% 30.19 in 10.0 mi NW 25.3 mph 35.7 mph N/A   Clear
9:15 PM 12.2 °F -7.5 °F -0.4 °F 57% 30.20 in 10.0 mi NW 24.2 mph 33.4 mph N/A   Clear
9:35 PM 10.4 °F -8.6 °F -0.4 °F 62% 30.21 in 10.0 mi NW 20.7 mph 29.9 mph N/A   Clear
9:55 PM 10.4 °F -9.1 °F -0.4 °F 62% 30.22 in 10.0 mi WNW 21.9 mph 27.6 mph N/A   Clear
10:15 PM 10.4 °F -8.6 °F -0.4 °F 62% 30.22 in 10.0 mi NW 20.7 mph 29.9 mph N/A   Clear
10:35 PM 10.4 °F -9.5 °F -0.4 °F 62% 30.22 in 10.0 mi WNW 23.0 mph 27.6 mph N/A   Clear
10:55 PM 10.4 °F -8.2 °F -0.4 °F 62% 30.23 in 10.0 mi NW 19.6 mph 27.6 mph N/A   Clear
11:15 PM 8.6 °F -12.7 °F -0.4 °F 67% 30.23 in 10.0 mi NW 25.3 mph 29.9 mph N/A   Clear
11:35 PM 8.6 °F -11.9 °F -0.4 °F 67% 30.25 in 10.0 mi WNW 23.0 mph 26.5 mph N/A   Clear
11:55 PM 8.6 °F -12.3 °F -2.2 °F 62% 30.25 in 10.0 mi NW 24.2 mph 27.6 mph N/A   Clear